period_start,C,m1,H,J0,J1,J2,J3,J4,J5,JA,JB,JC,JD,JJ,JK,JN,#
2014-01-09 00:00:23,0.06,2.51,0.00,27.22,28.62,31.33,5.82,30.04,1021.99,2033.97,2569.93,2654.56,2873.02,348.99,320.17,20.62,0000 0000 0000 0000 000000
2014-01-09 00:01:23,0.13,2.51,0.00,27.23,28.63,31.31,5.81,30.00,1022.01,2033.96,2569.57,2654.28,2872.93,350.20,321.29,20.63,0000 0000 0000 0000 000000
2014-01-09 00:02:24,0.17,2.51,0.00,27.25,28.64,31.32,5.76,30.13,1022.00,2033.95,2569.21,2654.10,2872.68,349.07,320.23,20.63,0000 0000 0000 0000 000000
2014-01-09 00:03:24,0.13,2.51,0.00,27.24,28.65,31.34,5.93,29.96,1021.99,2033.96,2569.08,2654.03,2872.36,350.54,321.84,20.64,0000 0000 0000 0000 000000
2014-01-09 00:04:24,0.09,2.51,0.00,27.22,28.65,31.35,5.87,30.04,1022.00,2033.96,2569.02,2654.01,2872.15,349.12,320.46,20.64,0000 0000 0000 0000 000000
2014-01-09 00:05:24,0.05,2.51,0.00,27.23,28.65,31.32,5.86,29.88,1021.99,2033.97,2568.95,2654.00,2872.06,349.03,320.38,20.65,0000 0000 0000 0000 000000
2014-01-09 00:06:25,0.04,2.51,0.00,27.25,28.65,31.35,5.91,30.00,1021.99,2033.97,2568.67,2653.95,2872.02,349.76,320.73,20.66,0000 0000 0000 0000 000000
2014-01-09 00:07:25,0.10,2.51,0.00,27.26,28.65,31.32,5.90,30.17,1021.99,2033.95,2568.27,2653.57,2871.97,349.31,320.67,20.66,0000 0000 0000 0000 000000
2014-01-09 00:08:25,0.16,2.51,0.00,27.25,28.65,31.34,5.93,30.13,1021.99,2033.94,2568.09,2653.23,2871.85,349.44,320.78,20.67,0000 0000 0000 0000 000000
2014-01-09 00:09:25,0.16,2.52,0.00,27.23,28.67,31.35,5.87,30.50,1021.99,2033.94,2568.00,2653.08,2871.44,350.53,321.58,20.67,0000 0000 0000 0000 000000
2014-01-09 00:10:26,0.10,2.52,0.00,27.24,28.67,31.36,5.92,30.50,1021.99,2033.88,2567.77,2653.03,2871.19,350.24,320.85,20.68,0000 0000 0000 0000 000000
2014-01-09 00:11:26,0.07,2.52,0.00,27.24,28.67,31.37,5.93,30.42,1021.99,2033.86,2567.32,2653.00,2871.07,350.80,321.82,20.68,0000 0000 0000 0000 000000
2014-01-09 00:12:26,0.09,2.52,0.00,27.25,28.67,31.37,5.75,30.04,1021.99,2033.85,2567.11,2652.95,2871.01,350.47,321.73,20.69,0000 0000 0000 0000 000000
2014-01-09 00:13:27,0.01,2.52,0.00,27.24,28.67,31.36,5.80,30.21,1021.99,2033.74,2567.03,2652.79,2870.98,348.95,320.18,20.70,0000 0000 0000 0000 000000
2014-01-09 00:14:27,0.02,2.52,0.00,27.25,28.67,31.37,5.95,30.04,1021.99,2033.72,2566.98,2652.45,2870.83,350.88,321.67,20.70,0000 0000 0000 0000 000000
2014-01-09 00:15:27,0.12,2.52,0.00,27.27,28.68,31.39,5.88,30.21,1021.99,2033.64,2566.65,2652.18,2870.43,350.28,321.12,20.71,0000 0000 0000 0000 000000
2014-01-09 00:16:27,0.11,2.52,0.00,27.26,28.69,31.37,5.86,30.13,1021.99,2033.49,2566.25,2652.07,2870.17,349.03,320.74,20.71,0000 0000 0000 0000 000000
2014-01-09 00:17:28,0.02,2.52,0.00,27.28,28.70,31.37,5.73,30.38,1021.99,2033.44,2566.09,2652.02,2870.06,349.60,320.67,20.72,0000 0000 0000 0000 000000
2014-01-09 00:18:28,0.05,2.52,0.00,27.28,28.70,31.40,5.98,30.21,1021.99,2033.51,2566.03,2652.00,2870.02,350.55,321.54,20.73,0000 0000 0000 0000 000000
2014-01-09 00:19:28,0.05,2.52,0.00,27.30,28.70,31.41,6.02,30.25,1021.99,2033.43,2565.97,2651.96,2869.99,351.20,322.13,20.73,0000 0000 0000 0000 000000
2014-01-09 00:20:29,0.00,2.52,0.00,27.28,28.70,31.38,5.89,30.33,1021.99,2033.31,2565.64,2651.74,2869.77,349.37,320.25,20.74,0000 0000 0000 0000 000000
2014-01-09 00:21:29,0.07,2.52,0.00,27.29,28.70,31.38,5.86,30.13,1021.99,2033.22,2565.25,2651.33,2869.34,350.57,321.55,20.74,0000 0000 0000 0000 000000
2014-01-09 00:22:29,0.17,2.52,0.00,27.30,28.70,31.37,5.80,30.17,1021.99,2033.20,2565.09,2651.13,2869.13,349.77,320.81,20.75,0000 0000 0000 0000 000000
2014-01-09 00:23:29,0.09,2.52,0.00,27.30,28.71,31.37,5.93,30.04,1021.99,2033.12,2565.02,2651.05,2869.05,350.26,321.55,20.75,0000 0000 0000 0000 000000
2014-01-09 00:24:30,0.01,2.52,0.00,27.31,28.72,31.41,5.88,30.21,1021.98,2033.12,2564.95,2651.01,2869.01,349.48,320.29,20.76,0000 0000 0000 0000 000000
2014-01-09 00:25:30,0.04,2.52,0.00,27.31,28.72,31.41,5.87,30.08,1021.97,2033.23,2564.77,2651.00,2869.00,350.34,321.27,20.77,0000 0000 0000 0000 000000
2014-01-09 00:26:30,0.11,2.52,0.00,27.30,28.72,31.43,5.88,30.33,1021.94,2033.22,2564.32,2650.96,2868.94,349.78,320.81,20.77,0000 0000 0000 0000 000000
2014-01-09 00:27:30,0.10,2.52,0.00,27.32,28.72,31.43,5.95,30.29,1021.92,2033.20,2564.11,2650.86,2868.69,349.76,320.42,20.78,0000 0000 0000 0000 000000
2014-01-09 00:28:31,0.12,2.52,0.00,27.35,28.72,31.43,5.93,30.25,1021.90,2033.17,2564.02,2650.54,2868.31,350.30,321.21,20.78,0000 0000 0000 0000 000000
2014-01-09 00:29:31,0.14,2.53,0.00,27.33,28.72,31.40,5.89,30.04,1021.82,2033.15,2563.90,2650.21,2868.11,350.39,321.29,20.79,0000 0000 0000 0000 000000
2014-01-09 00:30:31,0.13,2.53,0.00,27.32,28.73,31.41,5.86,30.08,1021.78,2033.14,2563.53,2650.08,2868.04,350.54,321.50,20.80,0000 0000 0000 0000 000000
2014-01-09 00:31:32,0.09,2.53,0.00,27.32,28.74,31.41,5.92,30.00,1021.74,2033.07,2563.22,2650.03,2867.99,351.16,321.70,20.80,0000 0000 0000 0000 000000
2014-01-09 00:32:32,0.02,2.53,0.00,27.33,28.75,31.44,5.88,30.17,1021.66,2033.03,2563.08,2649.97,2867.71,349.89,321.07,20.81,0000 0000 0000 0000 000000
2014-01-09 00:33:32,0.06,2.53,0.00,27.31,28.75,31.46,5.84,30.13,1021.62,2033.02,2563.02,2649.82,2867.30,350.30,321.06,20.81,0000 0000 0000 0000 000000
2014-01-09 00:34:33,0.12,2.53,0.00,27.33,28.75,31.45,5.71,30.00,1021.59,2033.02,2562.84,2649.49,2867.13,349.49,320.38,20.82,0000 0000 0000 0000 000000
2014-01-09 00:35:33,0.17,2.53,0.00,27.33,28.75,31.46,5.88,30.13,1021.56,2033.02,2562.43,2649.23,2867.04,350.37,321.19,20.83,0000 0000 0000 0000 000000
2014-01-09 00:36:34,0.14,2.53,0.00,27.36,28.75,31.48,5.81,30.00,1021.57,2033.00,2562.16,2649.09,2867.01,348.26,319.23,20.83,0000 0000 0000 0000 000000
2014-01-09 00:37:34,0.07,2.53,0.00,27.35,28.75,31.44,6.07,30.50,1021.54,2033.01,2562.04,2649.03,2866.95,350.96,321.71,20.84,0000 0000 0000 0000 000000
2014-01-09 00:38:34,0.07,2.53,0.00,27.35,28.76,31.49,5.88,30.08,1021.55,2033.00,2561.94,2649.01,2866.51,349.91,320.64,20.84,0000 0000 0000 0000 000000
2014-01-09 00:39:34,0.09,2.53,0.00,27.33,28.77,31.50,5.89,30.54,1021.52,2033.01,2561.61,2648.97,2866.22,349.46,320.28,20.85,0000 0000 0000 0000 000000
2014-01-09 00:40:35,0.13,2.53,0.00,27.31,28.77,31.49,5.88,30.58,1021.50,2033.01,2561.26,2648.85,2866.09,349.45,320.35,20.85,0000 0000 0000 0000 000000
2014-01-09 00:41:35,0.12,2.53,0.00,27.30,28.77,31.48,5.93,30.25,1021.50,2033.02,2561.11,2648.59,2866.03,349.84,320.55,20.86,0000 0000 0000 0000 000000
2014-01-09 00:42:35,0.14,2.53,0.00,27.33,28.77,31.49,5.90,30.04,1021.51,2033.01,2561.04,2648.26,2866.01,349.72,320.66,20.87,0000 0000 0000 0000 000000
2014-01-09 00:43:35,0.10,2.53,0.00,27.35,28.77,31.48,5.92,30.50,1021.52,2033.00,2561.00,2648.11,2865.98,349.86,321.33,20.87,0000 0000 0000 0000 000000
2014-01-09 00:44:36,0.06,2.53,0.00,27.35,28.77,31.49,5.88,30.33,1021.50,2033.00,2560.72,2648.04,2865.79,350.01,320.82,20.88,0000 0000 0000 0000 000000
2014-01-09 00:45:36,0.13,2.54,0.00,27.37,28.78,31.47,5.90,30.63,1021.50,2033.00,2560.31,2648.01,2865.40,349.78,320.58,20.88,0000 0000 0000 0000 000000
2014-01-09 00:46:36,0.13,2.54,0.00,27.38,28.79,31.46,5.98,30.42,1021.51,2033.00,2560.12,2647.99,2865.15,349.33,320.13,20.89,0000 0000 0000 0000 000000
2014-01-09 00:47:36,0.08,2.54,0.00,27.38,28.80,31.45,5.76,30.08,1021.50,2033.00,2560.04,2647.75,2865.05,349.43,320.24,20.90,0000 0000 0000 0000 000000
2014-01-09 00:48:37,0.11,2.54,0.00,27.37,28.80,31.49,5.80,30.29,1021.50,2033.00,2559.87,2647.41,2865.02,349.50,320.53,20.90,0000 0000 0000 0000 000000
2014-01-09 00:49:37,0.15,2.54,0.00,27.37,28.80,31.50,5.91,30.29,1021.50,2033.00,2559.40,2647.17,2864.95,349.38,320.34,20.91,0000 0000 0000 0000 000000
2014-01-09 00:50:37,0.15,2.54,0.00,27.38,28.80,31.50,5.89,30.46,1021.50,2033.00,2559.18,2647.06,2864.65,350.02,321.31,20.91,0000 0000 0000 0000 000000
2014-01-09 00:51:37,0.13,2.54,0.00,27.38,28.80,31.49,5.83,29.88,1021.50,2033.00,2559.06,2647.02,2864.33,349.72,320.59,20.92,0000 0000 0000 0000 000000
2014-01-09 00:52:38,0.08,2.54,0.00,27.39,28.80,31.51,5.90,30.17,1021.50,2033.00,2559.02,2646.96,2864.14,350.57,321.41,20.92,0000 0000 0000 0000 000000
2014-01-09 00:53:38,0.06,2.54,0.00,27.40,28.81,31.51,5.86,29.88,1021.50,2033.00,2559.00,2646.89,2864.05,349.97,319.98,20.93,0000 0000 0000 0000 000000
2014-01-09 00:54:38,0.03,2.54,0.00,27.40,28.82,31.51,5.86,29.92,1021.50,2033.00,2558.88,2646.63,2864.00,350.43,321.15,20.94,0000 0000 0000 0000 000000
2014-01-09 00:55:38,0.13,2.54,0.00,27.40,28.82,31.51,5.95,30.08,1021.50,2033.00,2558.47,2646.26,2863.95,350.16,320.91,20.94,0000 0000 0000 0000 000000
2014-01-09 00:56:39,0.18,2.54,0.00,27.41,28.82,31.50,5.75,29.96,1021.50,2033.00,2558.18,2646.09,2863.68,349.62,320.30,20.95,0000 0000 0000 0000 000000
2014-01-09 00:57:39,0.14,2.54,0.00,27.42,28.82,31.51,5.99,30.17,1021.50,2033.00,2558.07,2646.03,2863.36,350.40,321.11,20.95,0000 0000 0000 0000 000000
2014-01-09 00:58:39,0.09,2.54,0.00,27.42,28.82,31.50,5.84,30.25,1021.50,2033.00,2558.01,2646.01,2863.15,349.48,320.06,20.96,0000 0000 0000 0000 000000
2014-01-09 00:59:40,0.06,2.54,0.00,27.42,28.82,31.52,5.80,30.08,1021.50,2033.00,2557.82,2645.95,2863.05,350.37,321.07,20.97,0000 0000 0000 0000 000000
2014-01-09 01:00:40,0.08,2.55,0.00,27.41,28.83,31.54,5.83,30.04,1021.50,2032.99,2557.42,2645.88,2863.01,350.05,321.00,20.97,0000 0000 0000 0000 000000
2014-01-09 01:01:40,0.10,2.55,0.00,27.42,28.84,31.54,6.01,30.13,1021.49,2032.99,2557.15,2645.59,2862.94,350.76,321.49,20.98,0000 0000 0000 0000 000000
2014-01-09 01:02:41,0.14,2.55,0.00,27.42,28.85,31.52,5.84,30.13,1021.50,2032.99,2557.05,2645.32,2862.76,350.03,320.76,20.98,0000 0000 0000 0000 000000
2014-01-09 01:03:41,0.12,2.55,0.00,27.43,28.85,31.47,5.84,29.96,1021.50,2032.98,2557.01,2645.13,2862.42,349.03,319.84,20.99,0000 0000 0000 0000 000000
2014-01-09 01:04:41,0.11,2.55,0.00,27.44,28.85,31.48,5.78,30.13,1021.48,2032.99,2556.78,2645.05,2862.17,349.62,320.38,21.00,0000 0000 0000 0000 000000
2014-01-09 01:05:42,0.12,2.55,0.00,27.42,28.85,31.50,5.81,29.88,1021.48,2032.98,2556.37,2645.01,2862.06,349.83,320.57,21.00,0000 0000 0000 0000 000000
2014-01-09 01:06:42,0.10,2.55,0.00,27.43,28.85,31.53,6.02,30.50,1021.42,2032.98,2556.14,2644.98,2862.01,350.44,321.11,21.01,0000 0000 0000 0000 000000
2014-01-09 01:07:42,0.05,2.55,0.00,27.44,28.85,31.50,5.86,30.33,1021.46,2032.98,2556.05,2644.83,2861.97,350.61,320.75,21.01,0000 0000 0000 0000 000000
2014-01-09 01:08:42,0.07,2.55,0.00,27.43,28.85,31.52,5.73,30.00,1021.43,2032.97,2555.95,2644.44,2861.66,348.98,320.10,21.02,0000 0000 0000 0000 000000
2014-01-09 01:09:43,0.19,2.55,0.00,27.45,28.86,31.54,5.92,30.38,1021.42,2032.98,2555.64,2644.19,2861.28,350.09,320.77,21.02,0000 0000 0000 0000 000000
2014-01-09 01:10:43,0.20,2.55,0.00,27.47,28.87,31.55,5.86,30.21,1021.43,2032.98,2555.29,2644.08,2861.10,350.53,321.32,21.03,0000 0000 0000 0000 000000
2014-01-09 01:11:43,0.12,2.55,0.00,27.47,28.87,31.54,5.83,30.25,1021.36,2032.97,2555.11,2644.03,2861.03,349.44,320.34,21.04,0000 0000 0000 0000 000000
2014-01-09 01:12:44,0.04,2.55,0.00,27.47,28.87,31.52,5.93,30.50,1021.21,2032.94,2555.02,2644.00,2860.99,349.40,320.05,21.04,0000 0000 0000 0000 000000
2014-01-09 01:13:44,0.02,2.55,0.00,27.45,28.87,31.55,5.84,29.96,1021.24,2032.94,2554.85,2643.94,2860.89,349.25,319.93,21.05,0000 0000 0000 0000 000000
2014-01-09 01:14:44,0.13,2.55,0.00,27.48,28.87,31.56,5.63,30.21,1021.16,2032.93,2554.41,2643.68,2860.52,348.10,318.82,21.05,0000 0000 0000 0000 000000
2014-01-09 01:15:45,0.20,2.56,0.00,27.49,28.88,31.55,5.84,30.04,1021.12,2032.92,2554.15,2643.38,2860.26,350.11,320.87,21.06,0000 0000 0000 0000 000000
2014-01-09 01:16:45,0.16,2.56,0.00,27.48,28.88,31.56,5.96,30.29,1021.07,2032.91,2554.05,2643.16,2860.10,350.41,320.39,21.07,0000 0000 0000 0000 000000
2014-01-09 01:17:45,0.07,2.56,0.00,27.47,28.89,31.57,6.12,30.58,1021.05,2032.90,2554.00,2643.05,2860.04,350.88,321.49,21.07,0000 0000 0000 0000 000000
2014-01-09 01:18:46,0.03,2.56,0.00,27.48,28.90,31.57,5.92,30.17,1021.05,2032.91,2553.94,2643.02,2860.01,350.20,320.71,21.08,0000 0000 0000 0000 000000
2014-01-09 01:19:46,0.04,2.56,0.00,27.49,28.90,31.58,5.80,30.21,1021.02,2032.86,2553.53,2643.00,2859.97,348.91,319.70,21.08,0000 0000 0000 0000 000000
2014-01-09 01:20:46,0.03,2.56,0.00,27.48,28.90,31.58,5.83,30.17,1021.03,2032.87,2553.22,2642.98,2859.78,350.02,320.54,21.09,0000 0000 0000 0000 000000
2014-01-09 01:21:46,0.13,2.56,0.00,27.47,28.90,31.58,5.83,30.21,1021.03,2032.90,2553.09,2642.94,2859.50,349.80,320.74,21.09,0000 0000 0000 0000 000000
2014-01-09 01:22:47,0.10,2.56,0.00,27.49,28.90,31.59,5.86,30.33,1021.02,2032.87,2553.02,2642.74,2859.26,349.37,320.10,21.10,0000 0000 0000 0000 000000
2014-01-09 01:23:47,0.10,2.56,0.00,27.49,28.90,31.61,5.82,30.25,1021.02,2032.89,2552.98,2642.41,2859.09,349.37,319.93,21.11,0000 0000 0000 0000 000000
2014-01-09 01:24:47,0.15,2.56,0.00,27.50,28.91,31.62,5.88,30.04,1021.01,2032.90,2552.97,2642.17,2859.03,349.83,320.33,21.11,0000 0000 0000 0000 000000
2014-01-09 01:25:47,0.09,2.56,0.00,27.51,28.92,31.61,6.11,30.54,1021.01,2032.84,2552.74,2642.07,2859.01,351.05,321.40,21.12,0000 0000 0000 0000 000000
2014-01-09 01:26:48,0.01,2.56,0.00,27.51,28.92,31.58,5.87,30.17,1021.01,2032.83,2552.40,2642.02,2859.00,349.73,320.11,21.12,0000 0000 0000 0000 000000
2014-01-09 01:27:48,0.02,2.56,0.00,27.50,28.92,31.57,5.80,30.21,1021.01,2032.73,2552.16,2642.00,2858.86,348.87,319.54,21.13,0000 0000 0000 0000 000000
2014-01-09 01:28:48,0.04,2.56,0.00,27.50,28.92,31.59,5.87,30.33,1021.01,2032.59,2552.05,2641.98,2858.43,349.59,319.32,21.14,0000 0000 0000 0000 000000
2014-01-09 01:29:48,-0.02,2.56,0.00,27.50,28.92,31.59,5.79,30.08,1021.01,2032.59,2552.02,2641.97,2858.19,349.45,320.08,21.14,0000 0000 0000 0000 000000
2014-01-09 01:30:49,0.04,2.56,0.00,27.50,28.92,31.59,5.92,30.21,1021.01,2032.53,2551.97,2641.80,2858.07,349.33,319.89,21.15,0000 0000 0000 0000 000000
2014-01-09 01:31:49,-0.00,2.56,0.00,27.50,28.93,31.61,5.90,30.21,1021.01,2032.42,2551.69,2641.47,2858.02,349.87,320.38,21.15,0000 0000 0000 0000 000000
2014-01-09 01:32:49,0.12,2.56,0.00,27.50,28.94,31.64,5.83,30.17,1021.01,2032.30,2551.31,2641.19,2858.00,349.28,319.84,21.16,0000 0000 0000 0000 000000
2014-01-09 01:33:49,0.03,2.56,0.00,27.52,28.95,31.66,5.79,30.04,1021.01,2032.23,2551.11,2641.07,2857.96,349.00,319.65,21.17,0000 0000 0000 0000 000000
2014-01-09 01:34:49,0.02,2.56,0.00,27.52,28.95,31.66,5.84,30.13,1021.01,2032.19,2551.04,2641.02,2857.86,350.34,320.78,21.17,0000 0000 0000 0000 000000
2014-01-09 01:35:50,0.00,2.56,0.00,27.53,28.95,31.66,5.92,30.08,1021.01,2032.14,2551.01,2641.00,2857.51,350.03,320.47,21.18,0000 0000 0000 0000 000000
2014-01-09 01:36:50,0.00,2.56,0.00,27.52,28.95,31.66,5.93,30.13,1021.01,2032.11,2550.83,2640.96,2857.21,350.28,320.74,21.18,0000 0000 0000 0000 000000
2014-01-09 01:37:50,0.11,2.56,0.00,27.52,28.95,31.67,5.87,30.46,1021.01,2032.09,2550.41,2640.74,2857.07,349.95,320.12,21.19,0000 0000 0000 0000 000000
2014-01-09 01:38:50,0.16,2.56,0.00,27.52,28.95,31.65,5.87,30.29,1021.00,2032.08,2550.15,2640.41,2857.02,349.40,319.70,21.19,0000 0000 0000 0000 000000
2014-01-09 01:39:51,0.15,2.57,0.00,27.53,28.95,31.61,5.91,30.54,1021.01,2032.08,2550.05,2640.16,2856.97,350.18,320.71,21.20,0000 0000 0000 0000 000000
2014-01-09 01:40:51,0.08,2.57,0.00,27.53,28.96,31.61,5.84,30.08,1021.01,2032.06,2550.00,2640.05,2856.86,350.19,320.64,21.21,0000 0000 0000 0000 000000
2014-01-09 01:41:51,0.05,2.57,0.00,27.54,28.97,31.62,5.77,30.17,1021.01,2032.04,2549.95,2640.02,2856.68,349.28,319.80,21.21,0000 0000 0000 0000 000000
2014-01-09 01:42:51,0.02,2.57,0.00,27.54,28.97,31.65,5.87,30.00,1021.01,2032.03,2549.66,2640.00,2856.34,350.13,320.58,21.22,0000 0000 0000 0000 000000
2014-01-09 01:43:52,0.12,2.57,0.00,27.54,28.97,31.68,5.82,30.13,1021.01,2032.03,2549.29,2639.99,2856.14,348.83,319.39,21.22,0000 0000 0000 0000 000000
2014-01-09 01:44:52,0.11,2.57,0.00,27.54,28.97,31.65,5.97,30.38,1021.01,2032.03,2549.11,2639.97,2856.05,350.38,320.98,21.23,0000 0000 0000 0000 000000
2014-01-09 01:45:52,0.05,2.57,0.00,27.54,28.97,31.67,5.88,30.08,1021.01,2032.02,2549.04,2639.94,2856.01,349.32,319.84,21.24,0000 0000 0000 0000 000000
2014-01-09 01:46:52,0.01,2.57,0.00,27.56,28.98,31.64,6.02,30.21,1021.01,2032.02,2549.01,2639.81,2856.00,350.88,321.38,21.24,0000 0000 0000 0000 000000
2014-01-09 01:47:53,0.05,2.57,0.00,27.57,28.99,31.67,5.93,30.29,1021.01,2032.01,2548.97,2639.41,2855.98,350.34,320.82,21.25,0000 0000 0000 0000 000000
2014-01-09 01:48:53,0.11,2.57,0.00,27.54,29.00,31.68,5.88,30.13,1021.01,2032.01,2548.75,2639.16,2855.85,349.61,320.09,21.25,0000 0000 0000 0000 000000
2014-01-09 01:49:53,0.15,2.57,0.00,27.55,29.00,31.67,5.77,29.92,1021.01,2032.00,2548.32,2639.07,2855.62,349.48,320.29,21.26,0000 0000 0000 0000 000000
2014-01-09 01:50:53,0.14,2.57,0.00,27.56,29.00,31.70,5.91,30.17,1021.01,2032.01,2548.12,2639.02,2855.30,350.17,320.58,21.26,0000 0000 0000 0000 000000
2014-01-09 01:51:53,0.11,2.57,0.00,27.56,29.00,31.69,5.86,30.04,1021.01,2032.00,2548.04,2639.01,2855.12,349.09,319.15,21.27,0000 0000 0000 0000 000000
2014-01-09 01:52:54,0.04,2.57,0.00,27.56,29.00,31.68,5.83,30.13,1021.01,2032.01,2548.01,2639.00,2855.07,349.84,320.29,21.28,0000 0000 0000 0000 000000
2014-01-09 01:53:54,0.02,2.57,0.00,27.55,29.00,31.68,5.86,30.38,1021.01,2032.01,2547.94,2638.96,2855.02,349.62,320.09,21.28,0000 0000 0000 0000 000000
2014-01-09 01:54:55,0.04,2.57,0.00,27.56,29.00,31.69,5.81,30.13,1021.01,2032.02,2547.67,2638.83,2854.97,349.91,320.35,21.29,0000 0000 0000 0000 000000
2014-01-09 01:55:55,0.12,2.57,0.00,27.59,29.02,31.73,5.79,30.17,1021.01,2032.01,2547.27,2638.42,2854.73,348.81,319.31,21.29,0000 0000 0000 0000 000000
2014-01-09 01:56:55,0.24,2.57,0.00,27.58,29.02,31.70,5.75,29.88,1021.01,2032.00,2547.10,2638.16,2854.36,349.47,319.92,21.30,0000 0000 0000 0000 000000
2014-01-09 01:57:55,0.16,2.58,0.00,27.59,29.02,31.72,5.81,30.25,1021.00,2032.00,2547.01,2638.06,2854.13,349.79,320.38,21.31,0000 0000 0000 0000 000000
2014-01-09 01:58:56,0.07,2.58,0.00,27.59,29.02,31.73,5.97,30.46,1021.01,2032.00,2546.78,2638.02,2854.05,351.01,321.32,21.31,0000 0000 0000 0000 000000
2014-01-09 01:59:56,0.07,2.58,0.00,27.58,29.02,31.68,5.89,30.08,1021.00,2032.00,2546.40,2638.00,2854.01,350.76,320.67,21.32,0000 0000 0000 0000 000000
2014-01-09 02:00:56,0.09,2.58,0.00,27.57,29.02,31.69,5.83,30.33,1021.01,2032.00,2546.16,2637.97,2853.97,349.70,320.15,21.32,0000 0000 0000 0000 000000
2014-01-09 02:01:56,0.05,2.58,0.00,27.59,29.02,31.71,5.99,30.38,1021.01,2032.00,2546.05,2637.68,2853.79,350.31,321.09,21.33,0000 0000 0000 0000 000000
2014-01-09 02:02:57,0.17,2.58,0.00,27.59,29.03,31.69,5.89,30.29,1021.01,2032.00,2546.00,2637.33,2853.40,349.49,319.98,21.34,0000 0000 0000 0000 000000
2014-01-09 02:03:57,0.17,2.58,0.00,27.60,29.03,31.69,5.76,30.08,1021.00,2032.00,2545.91,2637.14,2853.17,350.11,320.47,21.34,0000 0000 0000 0000 000000
2014-01-09 02:04:57,0.10,2.58,0.00,27.60,29.05,31.71,5.82,30.13,1021.01,2032.00,2545.48,2637.05,2853.07,348.97,319.60,21.35,0000 0000 0000 0000 000000
2014-01-09 02:05:57,0.14,2.58,0.00,27.61,29.05,31.72,5.93,30.08,1021.00,2032.00,2545.20,2637.02,2853.02,350.36,320.70,21.35,0000 0000 0000 0000 000000
2014-01-09 02:06:58,0.06,2.58,0.00,27.62,29.05,31.75,5.92,30.08,1021.00,2032.00,2545.07,2637.00,2853.00,350.26,320.29,21.36,0000 0000 0000 0000 000000
2014-01-09 02:07:58,0.02,2.58,0.00,27.61,29.05,31.72,5.94,30.25,1020.97,2032.00,2545.01,2636.98,2852.95,350.54,321.04,21.36,0000 0000 0000 0000 000000
2014-01-09 02:08:58,0.03,2.58,0.00,27.60,29.05,31.76,5.95,30.38,1020.98,2032.00,2544.93,2636.84,2852.64,350.15,320.62,21.37,0000 0000 0000 0000 000000
2014-01-09 02:09:58,0.12,2.58,0.00,27.60,29.05,31.75,5.88,30.04,1020.92,2032.00,2544.72,2636.55,2852.31,349.55,319.90,21.38,0000 0000 0000 0000 000000
2014-01-09 02:10:58,0.20,2.58,0.00,27.60,29.05,31.78,5.95,30.25,1020.91,2031.99,2544.29,2636.23,2852.11,350.38,320.40,21.38,0000 0000 0000 0000 000000
2014-01-09 02:11:58,0.19,2.58,0.00,27.61,29.06,31.75,5.82,30.21,1020.88,2031.99,2544.10,2636.08,2852.04,349.14,319.75,21.39,0000 0000 0000 0000 000000
2014-01-09 02:12:59,0.08,2.58,0.00,27.63,29.07,31.74,5.98,30.21,1020.77,2031.99,2544.03,2636.03,2852.01,350.18,320.09,21.39,0000 0000 0000 0000 000000
2014-01-09 02:13:59,0.02,2.59,0.00,27.64,29.07,31.76,5.81,30.04,1020.62,2031.98,2544.01,2636.01,2852.00,350.12,320.34,21.40,0000 0000 0000 0000 000000
2014-01-09 02:14:59,0.00,2.59,0.00,27.64,29.07,31.75,5.88,30.13,1020.58,2031.99,2543.81,2636.00,2851.80,349.86,320.08,21.41,0000 0000 0000 0000 000000
2014-01-09 02:15:59,0.10,2.59,0.00,27.63,29.07,31.74,5.77,30.33,1020.55,2031.99,2543.36,2635.93,2851.37,349.16,319.45,21.41,0000 0000 0000 0000 000000
2014-01-09 02:17:00,0.19,2.59,0.00,27.64,29.07,31.77,6.01,30.50,1020.55,2031.99,2543.15,2635.67,2851.19,350.65,320.81,21.42,0000 0000 0000 0000 000000
2014-01-09 02:18:00,0.14,2.59,0.00,27.64,29.07,31.78,5.95,30.00,1020.55,2031.98,2543.05,2635.31,2851.07,350.53,320.69,21.42,0000 0000 0000 0000 000000
2014-01-09 02:19:00,0.12,2.59,0.00,27.64,29.08,31.77,5.89,30.13,1020.55,2031.97,2543.02,2635.15,2851.03,350.56,320.72,21.43,0000 0000 0000 0000 000000
2014-01-09 02:20:00,0.07,2.59,0.00,27.65,29.09,31.77,5.88,30.46,1020.53,2031.98,2542.98,2635.06,2851.00,350.18,320.34,21.43,0000 0000 0000 0000 000000
2014-01-09 02:21:00,0.01,2.59,0.00,27.65,29.10,31.78,5.73,30.17,1020.54,2031.98,2542.77,2635.02,2851.00,349.61,319.79,21.44,0000 0000 0000 0000 000000
2014-01-09 02:22:01,0.08,2.59,0.00,27.64,29.10,31.79,5.92,30.42,1020.53,2031.97,2542.39,2635.00,2850.97,349.72,320.03,21.45,0000 0000 0000 0000 000000
2014-01-09 02:23:01,0.07,2.59,0.00,27.65,29.10,31.80,5.87,30.21,1020.53,2031.97,2542.16,2635.00,2850.88,350.31,320.27,21.45,0000 0000 0000 0000 000000
2014-01-09 02:24:01,0.06,2.59,0.00,27.66,29.10,31.80,5.73,30.08,1020.52,2031.98,2542.07,2634.99,2850.56,348.89,318.85,21.46,0000 0000 0000 0000 000000
2014-01-09 02:25:01,0.08,2.59,0.00,27.65,29.10,31.80,5.98,30.38,1020.52,2031.98,2542.01,2634.92,2850.25,351.15,321.03,21.46,0000 0000 0000 0000 000000
2014-01-09 02:26:01,0.08,2.59,0.00,27.65,29.10,31.78,5.97,30.67,1020.52,2031.96,2541.99,2634.70,2850.09,350.06,320.23,21.47,0000 0000 0000 0000 000000
2014-01-09 02:27:02,0.07,2.59,0.00,27.66,29.10,31.77,5.84,30.54,1020.52,2031.96,2541.91,2634.34,2850.03,349.70,319.90,21.48,0000 0000 0000 0000 000000
2014-01-09 02:28:02,0.15,2.59,0.00,27.68,29.11,31.79,5.87,30.38,1020.52,2031.93,2541.62,2634.14,2850.01,348.83,319.08,21.48,0000 0000 0000 0000 000000
2014-01-09 02:29:02,0.06,2.59,0.00,27.67,29.12,31.81,5.74,30.13,1020.52,2031.94,2541.29,2634.07,2850.00,349.10,319.67,21.49,0000 0000 0000 0000 000000
2014-01-09 02:30:02,0.09,2.59,0.00,27.67,29.12,31.81,6.02,30.50,1020.49,2031.95,2541.12,2634.05,2849.99,350.33,320.41,21.49,0000 0000 0000 0000 000000
2014-01-09 02:31:02,0.06,2.59,0.00,27.67,29.12,31.82,5.86,30.29,1020.44,2031.96,2541.04,2634.01,2849.86,350.08,319.83,21.50,0000 0000 0000 0000 000000
2014-01-09 02:32:03,0.06,2.59,0.00,27.69,29.12,31.81,5.74,30.38,1020.35,2031.97,2541.01,2634.00,2849.59,349.81,320.24,21.50,0000 0000 0000 0000 000000
2014-01-09 02:33:03,0.04,2.59,0.00,27.68,29.12,31.81,5.93,30.25,1020.29,2031.98,2540.99,2633.99,2849.30,350.11,320.48,21.51,0000 0000 0000 0000 000000
2014-01-09 02:34:03,0.08,2.60,0.00,27.69,29.12,31.81,5.85,30.42,1020.30,2031.99,2540.95,2633.98,2849.13,349.36,319.79,21.52,0000 0000 0000 0000 000000
2014-01-09 02:35:03,0.03,2.60,0.00,27.70,29.13,31.81,5.66,30.13,1020.35,2031.98,2540.82,2633.95,2849.05,349.22,319.70,21.52,0000 0000 0000 0000 000000
2014-01-09 02:36:04,0.03,2.60,0.00,27.70,29.14,31.83,5.87,30.04,1020.40,2031.98,2540.38,2633.62,2849.01,350.08,320.65,21.53,0000 0000 0000 0000 000000